Location: Fauquembergues
(50.6005°N, 2.0987°E)
Time: 10:14:49
(UTC+00:00)

Meteor 1-29 - Pass Details

Date: 14 July 2020
Orbit: 440 x 459 km, 97.7° (Epoch: 05 August)

Event Time Altitude Azimuth Distance (km) Brightness Sun altitude
Rises 00:53:51 0° 13° (NNE) 2,464 8.5 -16.7°
Reaches altitude 10° 00:55:53 10° 14° (NNE) 1,590 7.0 -16.6°
Maximum altitude 00:59:18 90° 264° (W) 459 2.8 -16.5°
Enters shadow 01:00:23 41° 195° (SSW) 670 3.2 -16.4°
